FW2888 Weather Reports


time (UTC)temp
C
wind
direction
speed
KPH
gust
KPH
rain 1hr
cm
rain 24hr
cm
rain mn
cm
humidity
%
barometer
mb
20260507134732 13 345 3.2 12.9 0.00 0.28 0.10 72 1005.9
20260507133729 13 297 3.2 8.0 0.00 0.28 0.10 72 1005.7
20260507133231 13 42 3.2 14.5 0.00 0.28 0.10 73 1005.5
20260507132231 13 102 1.6 9.7 0.00 0.28 0.10 73 1005.5
20260507131730 13 332 3.2 9.7 0.00 0.30 0.10 75 1005.5
20260507130229 13 88 3.2 14.5 0.00 0.30 0.10 77 1005.5
20260507125729 13 343 1.6 8.0 0.00 0.30 0.10 77 1005.6
20260507125230 13 338 1.6 3.2 0.00 0.30 0.10 80 1005.6
20260507123227 13 87 1.6 6.4 0.00 0.30 0.10 81 1005.3
20260507122729 13 281 1.6 4.8 0.00 0.30 0.10 82 1005.4
20260507122224 13 328 1.6 4.8 0.00 0.30 0.10 82 1005.4
20260507121725 13 276 1.6 6.4 0.00 0.30 0.10 83 1005.2
20260507121222 13 291 1.6 6.4 0.00 0.30 0.10 82 1005.1
20260507120220 13 330 0.0 4.8 0.00 0.30 0.10 83 1004.7
20260507115218 13 252 1.6 6.4 0.00 0.30 0.10 85 1004.9
20260507114718 12 341 1.6 6.4 0.00 0.30 0.10 84 1005.0
20260507113715 12 232 0.0 6.4 0.00 0.30 0.10 85 1005.0
20260507113215 12 346 0.0 6.4 0.00 0.30 0.10 85 1005.0
20260507112209 12 254 1.6 4.8 0.00 0.30 0.10 85 1004.6
20260507111707 12 347 1.6 4.8 0.00 0.30 0.10 85 1004.8
20260507111203 12 318 1.6 4.8 0.00 0.30 0.10 85 1004.7
20260507110703 12 320 1.6 4.8 0.00 0.30 0.10 85 1004.8
20260507110201 12 0 1.6 8.0 0.00 0.30 0.10 86 1004.9
20260507105700 12 301 1.6 8.0 0.00 0.30 0.10 86 1004.8
20260507105158 12 299 0.0 3.2 0.00 0.30 0.10 87 1004.7
20260507104659 12 10 0.0 3.2 0.00 0.30 0.10 87 1004.7
20260507104159 12 309 0.0 3.2 0.00 0.30 0.10 87 1004.6
20260507103656 12 299 0.0 3.2 0.00 0.30 0.10 87 1004.7
20260507103149 12 320 0.0 1.6 0.00 0.30 0.10 87 1004.5
20260507102649 12 320 0.0 8.0 0.00 0.30 0.10 87 1004.5
20260507102150 12 322 0.0 8.0 0.00 0.30 0.10 87 1004.2
20260507101651 12 343 0.0 3.2 0.00 0.30 0.10 87 1004.3
20260507101149 12 303 0.0 3.2 0.00 0.30 0.10 88 1004.2
20260507100649 12 14 0.0 3.2 0.00 0.30 0.10 87 1004.2
20260507100149 12 324 0.0 4.8 0.00 0.30 0.10 87 1004.3
20260507095150 12 342 0.0 3.2 0.00 0.30 0.10 87 1004.4
20260507094646 12 320 0.0 3.2 0.00 0.30 0.10 87 1004.3
20260507094145 12 329 0.0 1.6 0.00 0.30 0.10 88 1004.3
20260507093645 12 323 0.0 3.2 0.00 0.30 0.10 87 1004.2
20260507093146 12 324 0.0 4.8 0.00 0.30 0.10 87 1004.2
20260507092646 12 308 0.0 4.8 0.00 0.30 0.10 87 1004.2
20260507092146 12 97 0.0 1.6 0.03 0.30 0.10 88 1004.2
20260507091645 12 97 0.0 1.6 0.03 0.30 0.10 88 1004.4
20260507091145 12 324 0.0 4.8 0.03 0.30 0.10 88 1004.1
20260507090145 12 314 0.0 4.8 0.03 0.30 0.10 89 1003.8
20260507085145 12 320 0.0 1.6 0.03 0.30 0.10 89 1003.7
20260507084144 12 307 0.0 3.2 0.03 0.30 0.10 89 1003.9
20260507083647 12 302 0.0 3.2 0.03 0.30 0.10 88 1003.9
20260507083145 12 277 0.0 3.2 0.03 0.30 0.10 88 1003.9
20260507082646 12 277 0.0 3.2 0.03 0.30 0.10 88 1004.0
20260507082145 12 278 0.0 3.2 0.00 0.28 0.08 87 1004.2
20260507081645 12 353 0.0 4.8 0.00 0.28 0.08 86 1004.5
20260507080145 13 145 3.2 12.9 0.00 0.28 0.08 85 1003.6
20260507075647 13 293 3.2 12.9 0.00 0.28 0.08 87 1003.6
20260507075146 13 297 3.2 12.9 0.00 0.28 0.08 88 1003.6
20260507074647 13 0 1.6 6.4 0.00 0.28 0.08 89 1003.5
20260507074146 13 342 1.6 6.4 0.00 0.28 0.08 89 1003.5
20260507073642 13 342 0.0 6.4 0.00 0.28 0.08 89 1003.5
20260507073142 13 226 1.6 6.4 0.00 0.28 0.08 89 1003.3
20260507072639 13 222 1.6 6.4 0.00 0.28 0.08 90 1003.1
20260507072139 13 0 1.6 6.4 0.00 0.28 0.08 90 1003.2
20260507071638 13 319 1.6 6.4 0.00 0.28 0.08 90 1003.3
20260507071138 13 318 1.6 4.8 0.00 0.28 0.08 89 1003.4
20260507070633 13 355 1.6 4.8 0.00 0.28 0.08 89 1003.3
20260507070136 13 335 1.6 9.7 0.00 0.28 0.08 89 1003.5
20260507065632 13 333 1.6 9.7 0.00 0.28 0.08 90 1003.3
20260507064632 13 304 1.6 8.0 0.03 0.28 0.08 90 1003.2
20260507064132 13 74 3.2 6.4 0.03 0.28 0.08 90 1003.4
20260507063126 13 0 3.2 8.0 0.03 0.28 0.08 91 1003.7
20260507061627 14 320 3.2 9.7 0.05 0.28 0.08 91 1003.1
20260507061126 14 0 1.6 6.4 0.05 0.28 0.08 91 1003.0
20260507060625 14 339 1.6 4.8 0.05 0.28 0.08 90 1002.6
20260507060124 14 16 1.6 4.8 0.05 0.28 0.08 90 1002.1
20260507055623 14 330 0.0 4.8 0.03 0.25 0.08 90 1002.1
20260507055026 14 279 0.0 3.2 0.03 0.25 0.05 90 1001.9
20260507054527 14 170 1.6 8.0 0.03 0.25 0.05 90 1002.0
20260507054027 14 229 1.6 8.0 0.05 0.25 0.05 89 1002.1
20260507053528 14 84 1.6 4.8 0.05 0.25 0.05 89 1002.3
20260507053025 15 325 1.6 4.8 0.05 0.25 0.05 89 1002.9
20260507052525 15 301 1.6 9.7 0.05 0.25 0.05 89 1003.2
20260507051523 15 0 1.6 8.0 0.03 0.23 0.03 88 1003.4
20260507051023 15 88 1.6 12.9 0.03 0.23 0.03 88 1003.4
20260507050020 16 272 3.2 6.4 0.03 0.23 0.03 88 1003.3
20260507045020 17 305 1.6 8.0 0.03 0.23 0.03 88 1003.1
20260507044521 17 56 3.2 9.7 0.03 0.23 0.03 88 1003.0
20260507044020 17 79 3.2 9.7 0.00 0.20 0.00 88 1002.9
20260507043520 17 60 1.6 8.0 0.00 0.20 0.00 89 1003.2
20260507043016 18 343 0.0 3.2 0.00 0.20 0.00 89 1003.0
20260507042515 18 214 0.0 3.2 0.00 0.20 0.00 89 1002.7
20260507042016 18 214 0.0 3.2 0.00 0.20 0.00 88 1002.6
20260507041516 18 214 0.0 1.6 0.00 0.20 0.00 88 1002.3
20260507041014 18 214 0.0 1.6 0.00 0.20 0.00 87 1002.4
20260507040515 18 214 0.0 1.6 0.00 0.20 0.00 87 1002.7
20260507040015 18 214 0.0 0.0 0.00 0.20 0.00 87 1002.6
20260507035514 18 214 0.0 0.0 0.00 0.20 0.20 87 1002.5
20260507035016 18 214 0.0 0.0 0.00 0.20 0.20 87 1002.4
20260507034511 18 214 0.0 0.0 0.00 0.20 0.20 86 1002.4
20260507034010 18 214 0.0 0.0 0.00 0.20 0.20 86 1002.3
20260507033510 18 214 0.0 0.0 0.00 0.20 0.20 85 1002.3
20260507033011 18 214 0.0 0.0 0.00 0.20 0.20 85 1002.1
20260507032511 18 214 0.0 1.6 0.00 0.20 0.20 85 1002.0
20260507032010 18 214 0.0 1.6 0.00 0.20 0.20 84 1002.0
20260507031510 18 214 0.0 1.6 0.00 0.20 0.20 84 1002.3
20260507031010 18 214 0.0 0.0 0.00 0.20 0.20 84 1002.6
20260507030511 18 214 0.0 0.0 0.00 0.20 0.20 84 1002.5
20260507030007 18 214 0.0 0.0 0.00 0.20 0.20 84 1002.3
20260507025506 18 214 0.0 0.0 0.00 0.20 0.20 85 1002.1
20260507025006 18 214 0.0 0.0 0.00 0.20 0.20 85 1002.2
20260507024506 18 214 0.0 0.0 0.00 0.20 0.20 85 1002.2
20260507024003 18 214 0.0 0.0 0.00 0.20 0.20 85 1002.1
20260507023504 18 214 0.0 0.0 0.00 0.20 0.20 85 1001.8
20260507023004 18 214 0.0 0.0 0.00 0.20 0.20 85 1001.6
20260507022504 18 214 0.0 0.0 0.00 0.20 0.20 85 1001.4
20260507022004 18 214 0.0 0.0 0.00 0.20 0.20 84 1001.5
20260507021504 18 214 0.0 0.0 0.00 0.20 0.20 83 1001.5
20260507021007 18 214 0.0 0.0 0.00 0.20 0.20 84 1001.6
20260507020504 18 214 0.0 0.0 0.00 0.20 0.20 85 1001.8
20260507015501 18 214 0.0 1.6 0.00 0.20 0.20 85 1001.9
20260507015001 18 214 0.0 1.6 0.00 0.20 0.20 85 1001.9
20260507014459 18 276 0.0 0.0 0.00 0.20 0.20 84 1002.0
20260507014002 18 276 0.0 0.0 0.00 0.20 0.20 83 1002.1
20260507013459 18 276 0.0 1.6 0.00 0.20 0.20 83 1002.2
20260507013000 18 276 0.0 1.6 0.00 0.20 0.20 83 1002.3
20260507012500 18 276 0.0 1.6 0.00 0.20 0.20 83 1002.1
20260507012001 18 276 0.0 0.0 0.00 0.20 0.20 83 1002.3
20260507011000 18 276 0.0 0.0 0.00 0.20 0.20 82 1002.0
20260507010501 19 276 0.0 1.6 0.00 0.20 0.20 81 1002.0
20260507005457 19 353 0.0 3.2 0.00 0.20 0.20 81 1002.0
20260507005000 19 103 0.0 1.6 0.00 0.20 0.20 81 1001.9
20260507004457 19 160 0.0 1.6 0.00 0.20 0.20 80 1001.7
20260507003952 20 170 0.0 3.2 0.00 0.20 0.20 80 1001.8
20260507003449 20 270 0.0 3.2 0.00 0.20 0.20 80 1001.7
20260507002953 20 272 0.0 6.4 0.00 0.20 0.20 80 1001.8
20260507002447 20 212 0.0 6.4 0.00 0.20 0.20 80 1001.8
20260507001948 20 277 0.0 6.4 0.00 0.20 0.20 79 1001.8
20260507001446 20 310 0.0 6.4 0.00 0.20 0.20 80 1002.0
20260507000946 20 142 0.0 6.4 0.00 0.20 0.20 79 1001.8
20260506235940 20 222 0.0 9.7 0.00 0.20 0.20 79 1001.8
20260506235441 20 263 0.0 9.7 0.00 0.20 0.20 79 1001.7
20260506234939 20 285 0.0 3.2 0.00 0.20 0.20 78 1001.6
20260506234438 20 285 0.0 3.2 0.00 0.20 0.20 78 1001.5
20260506233938 20 234 0.0 3.2 0.00 0.20 0.20 78 1001.3
20260506233436 21 170 0.0 3.2 0.00 0.20 0.20 78 1001.2
20260506232434 21 73 1.6 9.7 0.00 0.20 0.20 77 1001.3
20260506231935 21 246 1.6 9.7 0.00 0.20 0.20 77 1001.1
20260506231432 21 212 1.6 6.4 0.00 0.20 0.20 77 1001.2
20260506230428 21 308 1.6 8.0 0.00 0.20 0.20 76 1001.2
20260506225927 21 217 1.6 11.3 0.00 0.20 0.20 76 1001.1
20260506225428 21 239 1.6 11.3 0.00 0.20 0.20 75 1001.1
20260506224922 21 260 1.6 12.9 0.00 0.20 0.20 75 1001.2
20260506224422 21 49 1.6 12.9 0.00 0.20 0.20 75 1001.2
20260506223921 21 16 1.6 9.7 0.00 0.20 0.20 75 1001.1
20260506223422 21 188 1.6 9.7 0.00 0.20 0.20 74 1001.2
20260506222917 21 309 3.2 11.3 0.00 0.20 0.20 74 1001.2
20260506222418 21 282 3.2 11.3 0.00 0.20 0.20 74 1001.2
20260506221918 21 135 1.6 11.3 0.00 0.20 0.20 73 1001.3
20260506215917 22 217 3.2 14.5 0.00 0.20 0.20 72 1001.2
20260506215415 22 254 1.6 8.0 0.00 0.20 0.20 73 1001.0
20260506214916 22 348 1.6 8.0 0.00 0.20 0.20 74 1001.0
20260506214416 22 264 3.2 12.9 0.00 0.20 0.20 72 1001.1
20260506213914 22 72 3.2 12.9 0.00 0.20 0.20 73 1001.0
20260506213415 22 10 3.2 9.7 0.00 0.20 0.20 73 1001.2
20260506212913 22 176 3.2 9.7 0.00 0.20 0.20 72 1001.2
20260506212413 22 332 3.2 12.9 0.00 0.20 0.20 73 1001.0
20260506211913 22 56 3.2 16.1 0.00 0.20 0.20 72 1001.0
20260506211410 22 289 3.2 16.1 0.00 0.20 0.20 73 1001.1
20260506210912 21 273 1.6 9.7 0.00 0.20 0.20 74 1001.0
20260506210411 21 164 1.6 9.7 0.00 0.20 0.20 74 1001.0
20260506205907 21 66 3.2 14.5 0.00 0.20 0.20 74 1001.0
20260506205409 21 186 4.8 14.5 0.00 0.20 0.20 73 1001.1
20260506204907 21 302 3.2 12.9 0.00 0.20 0.20 73 1001.0
20260506204408 21 72 3.2 16.1 0.00 0.20 0.20 74 1001.1
20260506203908 21 192 3.2 16.1 0.00 0.20 0.20 74 1001.1
20260506202908 21 293 3.2 11.3 0.00 0.20 0.20 74 1001.1
20260506202408 21 323 3.2 12.9 0.00 0.20 0.20 74 1001.0
20260506201908 21 187 3.2 14.5 0.00 0.20 0.20 75 1001.3
20260506200907 21 145 3.2 9.7 0.00 0.20 0.20 76 1001.2
20260506200409 20 188 3.2 9.7 0.00 0.20 0.20 77 1001.2
20260506195907 20 176 3.2 11.3 0.00 0.20 0.20 78 1001.2
20260506195407 20 143 3.2 11.3 0.00 0.20 0.20 77 1001.2
20260506194908 20 36 1.6 11.3 0.00 0.20 0.20 78 1001.2
20260506194405 20 279 3.2 11.3 0.00 0.20 0.20 78 1001.3
20260506193904 19 336 3.2 11.3 0.00 0.20 0.20 78 1001.3
20260506193406 19 325 1.6 9.7 0.00 0.20 0.20 79 1001.5
20260506192401 20 191 1.6 11.3 0.03 0.20 0.20 79 1001.9
20260506191902 19 320 3.2 11.3 0.03 0.20 0.20 79 1001.8
20260506191402 19 284 4.8 11.3 0.03 0.20 0.20 78 1001.8
20260506190901 19 216 4.8 11.3 0.03 0.20 0.20 78 1001.9
20260506190400 19 290 3.2 11.3 0.03 0.20 0.20 78 1002.0
20260506185858 19 35 3.2 9.7 0.03 0.20 0.20 78 1002.0
20260506184858 20 309 3.2 8.0 0.03 0.20 0.20 80 1002.2
20260506184356 19 335 4.8 12.9 0.03 0.20 0.20 79 1002.2
20260506183354 19 334 4.8 16.1 0.03 0.20 0.20 78 1002.0
20260506182852 20 43 3.2 14.5 0.00 0.18 0.18 79 1002.1
20260506182351 20 196 3.2 14.5 0.00 0.18 0.18 78 1002.3
20260506181850 19 183 3.2 12.9 0.00 0.18 0.18 79 1002.4
20260506181349 19 15 3.2 12.9 0.00 0.18 0.18 79 1002.5
20260506180849 19 14 3.2 12.9 0.00 0.18 0.18 79 1002.3
20260506175851 19 187 3.2 6.4 0.00 0.18 0.18 80 1002.4
20260506175351 19 137 3.2 16.1 0.00 0.18 0.18 79 1002.4
20260506174851 19 15 4.8 16.1 0.00 0.18 0.18 79 1002.3
20260506173850 18 43 3.2 9.7 0.00 0.18 0.18 81 1002.5
20260506173349 18 106 3.2 9.7 0.00 0.18 0.18 81 1002.5
20260506172848 18 322 1.6 8.0 0.00 0.18 0.18 82 1002.6
20260506172348 18 93 3.2 14.5 0.00 0.18 0.18 82 1002.6
20260506171848 18 324 3.2 14.5 0.00 0.18 0.18 82 1002.6
20260506171349 18 49 3.2 12.9 0.00 0.18 0.18 82 1002.5
20260506170846 18 311 3.2 12.9 0.00 0.18 0.18 82 1002.5
20260506170346 18 112 3.2 11.3 0.00 0.18 0.18 82 1002.5
20260506165345 18 35 3.2 12.9 0.00 0.18 0.18 82 1002.6
20260506164842 18 201 3.2 11.3 0.00 0.18 0.18 84 1002.7
20260506164342 18 104 4.8 16.1 0.00 0.18 0.18 83 1002.8
20260506163844 18 334 3.2 16.1 0.00 0.18 0.18 83 1002.7
20260506161843 18 119 3.2 8.0 0.00 0.18 0.18 86 1003.4
20260506161343 17 253 3.2 8.0 0.00 0.18 0.18 87 1003.1
20260506160842 17 249 3.2 11.3 0.00 0.18 0.18 87 1003.2
20260506160342 17 177 1.6 11.3 0.00 0.18 0.18 88 1003.0
20260506155843 17 74 1.6 6.4 0.03 0.18 0.18 88 1003.1
20260506155342 17 183 1.6 6.4 0.03 0.18 0.18 88 1003.1
20260506154842 17 18 1.6 9.7 0.05 0.18 0.18 88 1003.1
20260506154344 17 179 1.6 9.7 0.05 0.18 0.18 88 1003.2
20260506153839 17 191 1.6 6.4 0.05 0.18 0.18 88 1003.1
20260506153338 17 42 1.6 4.8 0.05 0.18 0.18 89 1003.3
20260506152837 16 299 1.6 8.0 0.08 0.18 0.18 89 1003.3
20260506152337 16 105 1.6 8.0 0.13 0.18 0.18 89 1003.0
20260506151837 16 237 1.6 11.3 0.13 0.18 0.18 89 1003.0
20260506150835 16 130 1.6 9.7 0.13 0.18 0.18 88 1003.0
20260506145836 16 203 3.2 9.7 0.10 0.15 0.15 88 1003.4
20260506144835 16 178 1.6 11.3 0.10 0.13 0.13 88 1003.7
20260506144334 16 255 1.6 4.8 0.10 0.13 0.13 87 1003.9
20260506143834 16 191 1.6 4.8 0.10 0.13 0.13 87 1003.8
20260506143334 16 183 1.6 8.0 0.10 0.13 0.13 87 1003.9
20260506142335 16 245 1.6 9.7 0.03 0.05 0.05 85 1003.8
20260506140832 16 176 0.0 4.8 0.05 0.05 0.05 86 1003.6
20260506140332 16 89 1.6 3.2 0.05 0.05 0.05 85 1003.7
20260506135832 16 46 1.6 6.4 0.05 0.05 0.05 84 1003.6
20260506135327 16 185 1.6 6.4 0.03 0.03 0.03 84 1003.6